NOAA 16 DEB, 41218

Orbit data source: Space-Track

NOAA 16 DEB, 41218 is space debris in SSO originally from a launch on Thu, 21 Sep 2000 UTC launched from the Air Force Western Test Range (AFWTR). Debris objects in space refer to the collection of defunct objects orbiting the Earth. Examples of debris include non-operational satellites, rocket bodies, and fragments generated from explosions, collisions, or faulty payload assembly.

Loading next visibility...
Identifier
41218, 2000-055DX
Orbit
SSO
Country
Flag of USUS
Related business
Manufacturer
Unknown
Mission
Spacecraft
Bus & Motor
Unknown
Mass
Unknown
Launch date (UTC)
2000-09-21 (25 years ago)
Launch vehicle
Unknown
Launch site
Air Force Western Test Range (AFWTR)
Object type
Payload
Rocket body
Debris
Shape & HBR
Unknown shape, 0.1 m
Radar Cross Section
Small (<0.1 m²)

Expand to show TLE details & history
Last TLE update: 3 hours ago

TLE from 3 hours ago
0 NOAA 16 DEB
1 41218U 00055DX  25355.51893985  .00007150  00000-0  21484-2 0  9998
2 41218  98.7863 101.4370 0037259  94.6694 265.8752 14.42565863519665
Epoch: 2025-12-21T12:27Z
TLE epoch observation values (Epoch: 2025-12-21T12:27:16.403Z)
Latitude
0.00005°
Longitude
-175.71158°
Altitude
754.985 km
Speed
7.476 km/s
True Right ascension
06h 45m 44s
True Declination
0° 00' 00"
Sunlit
Object was in full shadow at epoch
Visualization orbit readout
Latitude
Unknown
Longitude
Unknown
Altitude
Unknown
Speed
Unknown
Apparent Right ascension
Unknown
Apparent Declination
Unknown
Sunlit
N/A
Visualization observer readout
Local Sidereal Time
14:43:56
Azimuth
Unknown
Elevation
Unknown
Doppler factor
Unknown
Orbital elements
Apogee altitude
773.714 km
Perigee altitude
720.617 km
Semi-major axis
7,125.303 km
Eccentricity
0.00373
Inclination
98.7863°
RAAN
101.437°
Arg. of periapsis
94.6694°
True anomaly
265.4495°
Mean anomaly
265.8752°
Eccentric anomaly
265.66233°
Mean motion
3.6086 °/min
Orbital period
99.76 mins
BSTAR
0.0021484
Loading maneuver chart data...
Computing Atmospheric mass density...
Loading historical data...
Loading historical data...
Loading historical data...
Loading historical data...
Loading historical data...
Loading historical data...
Loading historical data...

Documentation

Showing up to 5 results
|